Weather History for Flint, MI

Change the Weather History Date:

Monday, November 29, 2010

  Actual Average Record
Temperature  
Mean Temperature 39 °F 33 °F  
Max Temperature 50 °F 40 °F 68 °F (1941)
Min Temperature 28 °F 26 °F 1 °F (1929)
Degree Days  
Heating Degree Days 26 32  
Month to date heating degree days 724 753  
Since 1 July heating degree days 1270 1449  
Cooling Degree Days 0 0  
Month to date cooling degree days 0 0  
Year to date cooling degree days 861 531  
Moisture  
Dew Point 29 °F    
Average Humidity 67    
Maximum Humidity 85    
Minimum Humidity 49    
Precipitation  
Precipitation 0.00 in 0.08 in 1.26 in (2011)
Month to date precipitation 1.29 2.59  
Year to date precipitation 23.72 29.37  
Snow  
Snow 0.00 in 0.20 in 3.90 in (1966)
Month to date snowfall 0.2 2.3  
Since 1 July snowfall 0.2 2.7  
Since 1 September snowfall 0.2 2.7  
Snow Depth 0.00 in    
Sea Level Pressure  
Sea Level Pressure 30.13 in    
Wind  
Wind Speed 11 mph (SSE)    
Max Wind Speed 18 mph    
Max Gust Speed 25 mph    
Visibility 10 miles    
Events      
T = Trace of Precipitation, MM = Missing Value Source: NWS Daily Summary

Daily Weather History Graph

Daily Weather History Graph

Search for Another Location

Airport:

Trip Planner

Search our weather history database for the weather conditions in past years. The results will help you decide how hot, cold, wet, or windy it might be!

Date:

Astronomy

Nov. 29, 2010 Rise Set
Actual Time 7:44 AM EST 5:02 PM EST
Civil Twilight 7:12 AM EST 5:33 PM EST
Nautical Twilight 6:37 AM EST 6:09 PM EST
Astronomical Twilight 6:03 AM EST 6:43 PM EST
Moon 12:39 AM EST 1:11 PM EST
Length of Visible Light 10h 21m
Length of Day
9h 18m
Last Quarter, 40% of the Moon is Illuminated
Nov 29
Last Quarter
Dec 5
New
Dec 13
First Quarter
Dec 21
Full
Dec 27
Last Quarter

Hourly Weather History & Observations

Time (EST) Temp. Windchill Dew Point Humidity Pressure Visibility Wind Dir Wind Speed Gust Speed Precip Events Conditions
12:53 AM 28.0 °F 21.7 °F 23.0 °F 81% 30.24 in 10.0 mi SSE 5.8 mph - N/A   Clear
1:53 AM 28.9 °F 22.8 °F 24.1 °F 82% 30.25 in 10.0 mi SSE 5.8 mph - N/A   Clear
2:53 AM 30.9 °F 23.5 °F 26.1 °F 82% 30.26 in 10.0 mi SSE 8.1 mph - N/A   Clear
3:53 AM 33.1 °F 25.5 °F 27.0 °F 78% 30.26 in 10.0 mi South 9.2 mph - N/A   Clear
4:53 AM 30.0 °F 21.7 °F 25.0 °F 82% 30.25 in 10.0 mi SSE 9.2 mph - N/A   Clear
5:53 AM 32.0 °F 25.6 °F 25.0 °F 75% 30.23 in 10.0 mi SE 6.9 mph - N/A   Clear
6:53 AM 30.0 °F 23.2 °F 24.1 °F 79% 30.23 in 10.0 mi SSE 6.9 mph - N/A   Clear
7:53 AM 30.2 °F 22.6 °F 24.8 °F 80% 30.20 in 10.0 mi SE 8.1 mph - N/A   Clear
8:53 AM 36.0 °F 29.0 °F 28.0 °F 73% 30.22 in 10.0 mi SSE 9.2 mph - N/A   Clear
9:53 AM 39.0 °F 31.4 °F 28.9 °F 67% 30.21 in 10.0 mi SSE 12.7 mph - N/A   Clear
10:53 AM 42.1 °F 35.7 °F 28.9 °F 60% 30.20 in 10.0 mi South 11.5 mph - N/A   Clear
11:53 AM 44.1 °F 37.7 °F 28.9 °F 55% 30.17 in 10.0 mi South 12.7 mph - N/A   Clear
12:53 PM 46.9 °F - 28.9 °F 50% 30.14 in 10.0 mi SSE 15.0 mph - N/A   Clear
1:53 PM 46.9 °F - 30.0 °F 52% 30.11 in 10.0 mi SSE 12.7 mph - N/A   Clear
2:53 PM 50.0 °F - 32.0 °F 50% 30.07 in 10.0 mi South 11.5 mph 23.0 mph N/A   Clear
3:53 PM 48.0 °F - 32.0 °F 54% 30.06 in 10.0 mi SSE 15.0 mph 21.9 mph N/A   Clear
4:53 PM 46.0 °F 40.6 °F 30.9 °F 56% 30.06 in 10.0 mi SE 11.5 mph - N/A   Clear
5:53 PM 44.1 °F 39.0 °F 32.0 °F 63% 30.06 in 10.0 mi SE 9.2 mph - N/A   Clear
6:53 PM 43.0 °F 37.7 °F 32.0 °F 65% 30.07 in 10.0 mi SSE 9.2 mph - N/A   Clear
7:53 PM 45.0 °F 38.5 °F 32.0 °F 60% 30.03 in 10.0 mi SE 13.8 mph - N/A   Clear
8:53 PM 46.4 °F 39.8 °F 30.2 °F 53% 29.98 in 10.0 mi SSE 16.1 mph - N/A   Clear
9:53 PM 46.0 °F 41.0 °F 30.9 °F 56% 29.97 in 10.0 mi SE 10.4 mph - N/A   Clear
10:53 PM 46.9 °F - 30.9 °F 54% 29.94 in 10.0 mi SSE 15.0 mph 23.0 mph N/A   Overcast
11:53 PM 46.9 °F - 30.0 °F 52% 29.91 in 10.0 mi SE 11.5 mph - N/A   Mostly Cloudy